sat.trackr.live / text

‹ back to catalog

GSAT0216 (GALILEO 20)

NORAD 43056 · 2017-079B

PAYLOAD ACTIVE UNKNOWN

§ Identity

Operator
Country
ESA
Launch date
2017-12-12
Launch site
FRGUI
Launch vehicle
Mass (kg)
RCS (m²)

Purposes: earth_obs, nav

External: N2YO · Heavens-Above · Gunter

§ Orbital elements

Epoch: 2026-05-22T11:55:54.694848Z

Period
844.70 min
Inclination
55.0811°
Eccentricity
0.0003659
Mean motion
1.70474676 rev/d
Perigee alt
23,211.3 km
Apogee alt
23,232.9 km
Semi-major
29,600.2 km
B*
0.0000e+0
RAAN
222.2139°
Arg perigee
275.5669°
Mean anomaly
84.4487°
Rev number
5,256

§ Raw data

GSAT0216 (GALILEO 20)1 43056U 17079B   26142.49716082 -.00000011  00000+0  00000+0 0  99952 43056  55.0811 222.2139 0003659 275.5669  84.4487  1.70474676 52569

JSON: /api/v1/satellites/43056 · /tle

For live sub-satellite position, see the globe view (requires WebGL).

§ Visibility from observer

Set your observer location to see the next 7 days of passes ≥ 10°. The values pass through the URL so the page stays shareable.

No JS? Fill the form by hand. The geolocation button needs JavaScript.